User: anonymous   Login
Location: Unspecified
(0.0000°N, 0.0000°E)
Time: 11:02:13
(UTC+00:00)
Language:

STARLINK-30755 - Orbit

View from above orbital plane
View from above orbital plane
View from above satellite
View from above satellite

Ground track
Ground track

The orbit is defined by the following mean orbital elements,

1 58186U          26145.48995823 +.00000000 +00000-0 +30814-4 0 00007
2 58186  43.0049  69.4223 0001140 258.1700 101.9024 15.27582157    05
Epoch (UTC): 25 May 2026 11:45:32
Eccentricity: 0.0001140
inclination: 43.0049°
perigee height: 482 km
apogee height: 484 km
right ascension of ascending node: 69.4223°
argument of perigee: 258.1700°
revolutions per day: 15.27582157
mean anomaly at epoch: 101.9024°

The dashed part of the orbit path shows where the satellite is in the earth's shadow,  

DLR